Weather History for Nebraska City, NE

Change the Weather History Date:

Wednesday, May 22, 2013

  Actual Average (KSDA) Record (KSDA)
Temperature  
Mean Temperature 57 °F -  
Max Temperature 62 °F 76 °F 93 °F (2000)
Min Temperature 52 °F 54 °F 32 °F (1963)
Degree Days  
Heating Degree Days 8    
Growing Degree Days 7 (Base 50)    
Moisture  
Dew Point 49 °F    
Average Humidity 75    
Maximum Humidity 87    
Minimum Humidity 62    
Precipitation  
Precipitation 0.00 in - - ()
Sea Level Pressure  
Sea Level Pressure 29.83 in    
Wind  
Wind Speed 12 mph (NW)    
Max Wind Speed 17 mph    
Max Gust Speed 23 mph    
Visibility 10 miles    
Events      
Averages and records for this station are not official NWS values.
T = Trace of Precipitation, MM = Missing Value Source: NWS Daily Summary

Daily Weather History Graph

Daily Weather History Graph

Search for Another Location

Airport:

Trip Planner

Search our weather history database for the weather conditions in past years. The results will help you decide how hot, cold, wet, or windy it might be!

Date:

Astronomy

May. 22, 2013 Rise Set
Actual Time 6:00 AM CDT 8:40 PM CDT
Civil Twilight 5:28 AM CDT 9:12 PM CDT
Nautical Twilight 4:49 AM CDT 9:51 PM CDT
Astronomical Twilight 4:04 AM CDT 10:36 PM CDT
Moon 6:03 PM CDT (5/22) 4:06 AM CDT (5/22)
Length of Visible Light 15h 43m
Length of Day
14h 39m
Waxing Gibbous, 91% of the Moon is Illuminated
May 22
Waxing Gibbous
May 24
Full
May 31
Last Quarter
Jun 8
New
Jun 16
First Quarter

Hourly Weather History & Observations

Time (CDT) Temp. Dew Point Humidity Pressure Visibility Wind Dir Wind Speed Gust Speed Precip Events Conditions
12:15 AM 55.8 °F 50.0 °F 81% 29.75 in 10.0 mi NW 9.2 mph - N/A   Overcast
12:35 AM 55.8 °F 49.5 °F 79% 29.75 in 10.0 mi NW 8.1 mph - N/A   Overcast
12:55 AM 55.2 °F 48.7 °F 79% 29.75 in 10.0 mi NW 10.4 mph 17.3 mph N/A   Overcast
1:15 AM 54.9 °F 48.6 °F 79% 29.75 in 10.0 mi WNW 11.5 mph 17.3 mph N/A   Overcast
1:35 AM 54.7 °F 48.6 °F 80% 29.75 in 10.0 mi WNW 11.5 mph 16.1 mph N/A   Overcast
1:55 AM 54.5 °F 48.6 °F 80% 29.76 in 10.0 mi WNW 9.2 mph - N/A   Overcast
2:15 AM 54.0 °F 48.6 °F 82% 29.75 in 10.0 mi WNW 9.2 mph - N/A   Overcast
2:35 AM 54.3 °F 48.7 °F 81% 29.75 in 10.0 mi WNW 9.2 mph - N/A   Overcast
2:55 AM 54.5 °F 48.7 °F 81% 29.75 in 10.0 mi WNW 12.7 mph - N/A   Overcast
3:15 AM 54.1 °F 48.2 °F 80% 29.75 in 10.0 mi WNW 13.8 mph - N/A   Overcast
3:35 AM 53.8 °F 48.2 °F 81% 29.75 in 10.0 mi WNW 12.7 mph - N/A   Overcast
3:55 AM 53.4 °F 48.2 °F 82% 29.75 in 10.0 mi NW 12.7 mph - N/A   Overcast
4:15 AM 53.1 °F 48.2 °F 84% 29.74 in 10.0 mi NW 10.4 mph - N/A   Overcast
4:35 AM 52.7 °F 48.2 °F 85% 29.74 in 10.0 mi WNW 11.5 mph 17.3 mph N/A   Mostly Cloudy
4:55 AM 52.3 °F 48.2 °F 86% 29.74 in 10.0 mi WNW 9.2 mph - N/A   Mostly Cloudy
5:15 AM 52.0 °F 48.2 °F 87% 29.74 in 10.0 mi WNW 11.5 mph 16.1 mph N/A   Scattered Clouds
5:35 AM 52.0 °F 47.8 °F 86% 29.74 in 10.0 mi WNW 9.2 mph - N/A   Scattered Clouds
5:55 AM 52.0 °F 47.8 °F 86% 29.74 in 10.0 mi WNW 11.5 mph 17.3 mph N/A   Overcast
6:15 AM 52.2 °F 48.2 °F 86% 29.75 in 10.0 mi WNW 13.8 mph - N/A   Overcast
6:35 AM 52.2 °F 48.2 °F 86% 29.75 in 10.0 mi WNW 12.7 mph - N/A   Overcast
6:55 AM 52.2 °F 48.4 °F 87% 29.75 in 10.0 mi WNW 12.7 mph 18.4 mph N/A   Overcast
7:15 AM 52.5 °F 48.2 °F 85% 29.76 in 10.0 mi WNW 15.0 mph - N/A   Overcast
7:35 AM 52.7 °F 48.4 °F 85% 29.77 in 10.0 mi NW 12.7 mph 17.3 mph N/A   Overcast
7:55 AM 52.9 °F 48.2 °F 84% 29.77 in 10.0 mi WNW 12.7 mph 17.3 mph N/A   Overcast
8:15 AM 53.6 °F 48.4 °F 82% 29.78 in 10.0 mi WNW 13.8 mph 19.6 mph N/A   Overcast
8:35 AM 54.1 °F 48.7 °F 82% 29.79 in 10.0 mi WNW 11.5 mph - N/A   Overcast
8:55 AM 54.9 °F 48.7 °F 80% 29.79 in 10.0 mi NW 16.1 mph 20.7 mph N/A   Overcast
9:15 AM 55.0 °F 48.7 °F 79% 29.80 in 10.0 mi NW 15.0 mph 18.4 mph N/A   Overcast
9:35 AM 55.8 °F 48.6 °F 77% 29.80 in 10.0 mi NW 12.7 mph 18.4 mph N/A   Overcast
9:55 AM 56.8 °F 49.1 °F 75% 29.80 in 10.0 mi NW 12.7 mph 20.7 mph N/A   Overcast
10:15 AM 58.1 °F 49.5 °F 73% 29.80 in 10.0 mi NW 16.1 mph 20.7 mph N/A   Overcast
10:35 AM 58.3 °F 49.3 °F 72% 29.81 in 10.0 mi WNW 16.1 mph - N/A   Overcast
10:55 AM 58.8 °F 49.3 °F 71% 29.81 in 10.0 mi WNW 15.0 mph 23.0 mph N/A   Overcast
11:15 AM 58.3 °F 49.5 °F 72% 29.82 in 10.0 mi WNW 13.8 mph 20.7 mph N/A   Overcast
11:35 AM 58.8 °F 49.1 °F 70% 29.83 in 10.0 mi WNW 11.5 mph 21.9 mph N/A   Overcast
11:55 AM 58.5 °F 49.1 °F 71% 29.84 in 10.0 mi WNW 11.5 mph - N/A   Overcast
12:15 PM 59.0 °F 49.1 °F 70% 29.84 in 10.0 mi WNW 15.0 mph - N/A   Overcast
12:35 PM 59.0 °F 49.3 °F 70% 29.84 in 10.0 mi WNW 17.3 mph - N/A   Overcast
12:55 PM 58.8 °F 49.3 °F 71% 29.84 in 10.0 mi WNW 15.0 mph 20.7 mph N/A   Overcast
1:15 PM 59.5 °F 49.8 °F 70% 29.84 in 10.0 mi WNW 16.1 mph - N/A   Overcast
1:35 PM 59.9 °F 49.6 °F 69% 29.84 in 10.0 mi NW 15.0 mph 20.7 mph N/A   Overcast
1:55 PM 59.5 °F 50.4 °F 72% 29.84 in 10.0 mi NW 13.8 mph - N/A   Overcast
2:15 PM 59.7 °F 50.7 °F 72% 29.84 in 10.0 mi NW 15.0 mph 20.7 mph N/A   Overcast
2:35 PM 60.8 °F 50.2 °F 68% 29.84 in 10.0 mi NW 15.0 mph 19.6 mph N/A   Overcast
2:55 PM 62.2 °F 49.6 °F 63% 29.84 in 10.0 mi WNW 17.3 mph 23.0 mph N/A   Overcast
3:15 PM 60.1 °F 48.7 °F 66% 29.84 in 10.0 mi NW 15.0 mph - N/A   Overcast
3:35 PM 60.4 °F 48.7 °F 65% 29.84 in 10.0 mi WNW 11.5 mph 17.3 mph N/A   Overcast
3:55 PM 61.2 °F 49.3 °F 65% 29.84 in 10.0 mi NW 15.0 mph - N/A   Overcast
4:15 PM 61.0 °F 48.7 °F 64% 29.84 in 10.0 mi NW 15.0 mph 18.4 mph N/A   Overcast
4:35 PM 61.3 °F 48.4 °F 62% 29.85 in 10.0 mi NW 16.1 mph 19.6 mph N/A   Overcast
4:55 PM 61.2 °F 48.7 °F 64% 29.85 in 10.0 mi NNW 13.8 mph 18.4 mph N/A   Overcast
5:15 PM 60.4 °F 49.1 °F 66% 29.86 in 10.0 mi NW 10.4 mph 19.6 mph N/A   Overcast
5:35 PM 60.8 °F 48.6 °F 64% 29.86 in 10.0 mi NNW 12.7 mph 19.6 mph N/A   Overcast
5:55 PM 60.8 °F 48.4 °F 64% 29.87 in 10.0 mi NW 9.2 mph - N/A   Overcast
6:15 PM 60.3 °F 48.2 °F 64% 29.87 in 10.0 mi NW 9.2 mph - N/A   Overcast
6:35 PM 59.9 °F 48.0 °F 65% 29.87 in 10.0 mi NNW 11.5 mph 20.7 mph N/A   Overcast
6:55 PM 59.9 °F 48.4 °F 66% 29.88 in 10.0 mi NNW 11.5 mph - N/A   Overcast
7:15 PM 59.4 °F 48.0 °F 66% 29.89 in 10.0 mi NNW 10.4 mph - N/A   Overcast
7:35 PM 59.4 °F 48.2 °F 67% 29.89 in 10.0 mi NNW 12.7 mph 18.4 mph N/A   Overcast
7:55 PM 59.0 °F 47.7 °F 66% 29.90 in 10.0 mi NNW 13.8 mph 19.6 mph N/A   Overcast
8:15 PM 58.5 °F 48.0 °F 68% 29.91 in 10.0 mi NW 9.2 mph - N/A   Overcast
8:35 PM 58.3 °F 48.4 °F 70% 29.92 in 10.0 mi NNW 10.4 mph - N/A   Overcast
8:55 PM 58.1 °F 48.4 °F 70% 29.93 in 10.0 mi NNW 10.4 mph - N/A   Overcast
9:15 PM 57.4 °F 49.1 °F 74% 29.94 in 10.0 mi NW 8.1 mph - N/A   Overcast
9:35 PM 57.2 °F 49.3 °F 75% 29.94 in 10.0 mi NW 9.2 mph - N/A   Overcast
9:55 PM 56.8 °F 49.5 °F 76% 29.95 in 10.0 mi NW 6.9 mph - N/A   Overcast
10:15 PM 56.5 °F 49.3 °F 77% 29.96 in 10.0 mi NW 5.8 mph - N/A   Overcast
10:35 PM 56.1 °F 49.1 °F 77% 29.96 in 10.0 mi NW 10.4 mph - N/A   Overcast
10:55 PM 56.5 °F 48.4 °F 74% 29.96 in 10.0 mi NNW 12.7 mph 16.1 mph N/A   Unknown
11:15 PM 56.3 °F 48.2 °F 74% 29.97 in 10.0 mi North 8.1 mph - N/A   Overcast
11:35 PM 55.4 °F 48.2 °F 77% 29.98 in 10.0 mi NNW 8.1 mph - N/A   Overcast
11:55 PM 55.2 °F 48.4 °F 78% 29.98 in 10.0 mi NW 6.9 mph - N/A   Overcast